AP-AM--MHX-NC NC Weather Roundup, AM

000

ASUS42 KMHX 151525

RWRMHX

WEATHER ROUNDUP FOR EASTERN NORTH CAROLINA

NATIONAL WEATHER SERVICE NEWPORT/MOREHEAD CITY NC

1100 AM EDT WED JUL 15 2015

NOTE: "FAIR" INDICATES FEW OR NO CLOUDS BELOW 12,000 FEET

WITH NO SIGNIFICANT WEATHER AND/OR OBSTRUCTIONS TO VISIBILITY

NCZ015>017-031-032-045>047-102-103-151600-

NORTH COAST

CITY SKY/WX TMP DP RH WIND PRES REMARKS

EDENTON N/A 83 71 66 W9 29.71S

ELIZABETH CITY PTSUNNY 84 71 65 W12 29.70R

KITTY HAWK CLOUDY 85 73 67 W8 29.69R

MANTEO CLOUDY 83 73 69 W12 29.71R

$$

NCZ045>047-081-094-103-104-151600-

CENTRAL COAST

CITY SKY/WX TMP DP RH WIND PRES REMARKS

FRISCO PTSUNNY 81 73 76 SW10 29.73S

SWANQUARTER N/A 82 N/A N/A SW6G20 29.68S

$$

NCZ095-097-098-100-101-151600-

SOUTHERN COAST

CITY SKY/WX TMP DP RH WIND PRES REMARKS

BEAUFORT PTSUNNY 85 74 69 SW12 29.73F

CEDAR ISLAND N/A 84 N/A N/A SW9G20 29.77S

JACKSONVILLE PTSUNNY 83 71 67 W9 29.73S

PINEY ISLAND PTSUNNY N/A N/A N/A W14G22 29.72F

WILMINGTON PTSUNNY 86 70 58 W17G25 29.74F

$$

NCZ011>013-027>030-043-044-078>080-089-090>093-098-151600-

COASTAL PLAIN

CITY SKY/WX TMP DP RH WIND PRES REMARKS

AHOSKIE MOSUNNY 82 69 65 NW3 29.72R

CLINTON SUNNY 85 70 60 NW9 29.77S

ELIZABETHTOWN SUNNY 84 68 59 W8 29.77F

GOLDSBORO SUNNY 85 69 60 W13 29.72F

GREENVILLE MOSUNNY 82 70 65 W9 29.75S

HAVELOCK N/A 86 71 60 W14 29.74F

KENANSVILLE MOSUNNY 84 68 57 W8G16 29.76F

KINSTON SUNNY 86 68 54 W12 29.74F

NEW BERN PTSUNNY 85 72 65 W12 29.73F

RICHLANDS MOSUNNY 84 68 58 W9 29.74F

ROCKY MOUNT MOSUNNY 88 66 48 NW8 29.74R

WASHINGTON MOSUNNY 83 70 63 W8 29.71F

WHITEVILLE MOSUNNY 83 70 63 W7 29.76F

$$

Delivered by Weather Underground Inc. Wed Jul 15 2015 11:25AM EDT